Location: Prairie State College
(41.5244°N, 87.6382°W)
Time: 09:36:17
(UTC-05:00)

ARGOS Delta rocket - Visible Passes

Search period start: 20 August 2014 00:00
Search period end: 30 August 2014 00:00
Orbit: 637 x 840 km, 96.5° (Epoch: 20 August)

Date Brightness Start Highest point End Pass type
(mag) Time Alt. Az. Time Alt. Az. Time Alt. Az.
20 Aug 6.0 01:26:27 21° NE 01:26:27 21° NE 01:29:20 10° NNE visible
20 Aug 5.4 03:06:06 26° NW 03:06:06 26° NW 03:08:37 10° NNW visible
21 Aug 5.2 02:21:18 37° N 02:21:18 37° N 02:24:25 10° N visible
22 Aug 5.9 01:36:30 25° NE 01:36:30 25° NE 01:39:28 10° N visible
22 Aug 5.7 03:16:10 21° NW 03:16:10 21° NW 03:18:15 10° NNW visible
23 Aug 6.6 00:51:43 12° NE 00:51:43 12° NE 00:53:01 10° NE visible
23 Aug 5.3 02:31:22 34° NNW 02:31:22 34° NNW 02:34:15 10° NNW visible
24 Aug 5.8 01:46:35 28° NNE 01:46:35 28° NNE 01:49:31 10° N visible
24 Aug 5.9 03:26:14 17° NW 03:26:14 17° NW 03:27:48 10° NW visible
25 Aug 6.5 01:01:47 15° NE 01:01:47 15° NE 01:03:47 10° NNE visible
25 Aug 5.5 02:41:26 30° NNW 02:41:26 30° NNW 02:44:03 10° NNW visible
26 Aug 5.7 01:56:39 30° NNE 01:56:39 30° NNE 01:59:30 10° N visible
26 Aug 6.2 03:36:19 13° NW 03:36:19 13° NW 03:37:14 10° NW visible
27 Aug 6.4 01:11:52 18° NE 01:11:52 18° NE 01:14:09 10° NNE visible
27 Aug 5.7 02:51:31 25° NNW 02:51:31 25° NNW 02:53:48 10° NNW visible
28 Aug 5.7 02:06:44 30° N 02:06:44 30° N 02:09:26 10° N visible
28 Aug 6.4 03:46:24 10° NW 03:46:24 10° NW 03:46:29 10° NW visible
29 Aug 6.3 01:21:58 20° NE 01:21:58 20° NE 01:24:21 10° NNE visible
29 Aug 5.9 03:01:37 21° NW 03:01:37 21° NW 03:03:30 10° NNW visible
